FW1130 Weather Reports


time (UTC)temp
F
wind
direction
speed
knots
gust
knots
rain 1hr
in
rain 24hr
in
rain mn
in
humidity
%
barometer
mb
20260506051339 59 172 0.0 0.0 0.00 0.00 0.00 79 1013.0
20260506050901 59 172 0.0 0.0 0.00 0.00 0.00 79 1013.0
20260506050323 59 172 0.0 0.0 0.00 0.00 0.00 78 1012.9
20260506044825 59 172 0.0 0.0 0.00 0.00 0.00 78 1012.8
20260506044334 60 172 0.0 0.0 0.00 0.00 0.00 77 1012.8
20260506043840 60 172 0.0 0.0 0.00 0.00 0.00 77 1012.8
20260506043323 60 172 0.0 0.0 0.00 0.00 0.00 77 1012.8
20260506042831 60 172 0.0 0.0 0.00 0.00 0.00 76 1012.7
20260506042324 60 172 0.0 0.0 0.00 0.00 0.00 76 1012.7
20260506041828 60 172 0.0 0.0 0.00 0.00 0.00 76 1012.6
20260506041337 61 172 0.0 0.0 0.00 0.00 0.00 75 1012.6
20260506040822 61 172 0.0 0.0 0.00 0.00 0.00 75 1012.5
20260506040338 61 172 0.0 0.0 0.00 0.00 0.00 75 1012.5
20260506035828 61 172 0.0 0.0 0.00 0.00 0.00 74 1012.4
20260506035325 61 172 0.0 0.0 0.00 0.00 0.00 74 1012.3
20260506034825 61 172 0.0 0.0 0.00 0.00 0.00 74 1012.2
20260506034402 62 172 0.0 0.0 0.00 0.00 0.00 73 1012.2
20260506033832 62 172 0.0 0.0 0.00 0.00 0.00 72 1012.1
20260506033327 62 172 0.0 0.0 0.00 0.00 0.00 72 1012.1
20260506032828 62 172 0.0 0.0 0.00 0.00 0.00 72 1012.1
20260506032349 62 172 0.0 0.0 0.00 0.00 0.00 72 1012.1
20260506031824 62 172 0.0 0.0 0.00 0.00 0.00 72 1012.0
20260506031326 63 172 0.0 0.0 0.00 0.00 0.00 71 1011.9
20260506030837 63 172 0.0 0.0 0.00 0.00 0.00 71 1011.9
20260506030327 63 172 0.0 0.0 0.00 0.00 0.00 71 1011.9
20260506025831 63 172 0.0 0.0 0.00 0.00 0.00 71 1011.9
20260506025342 63 228 0.0 0.0 0.00 0.00 0.00 71 1011.9
20260506024832 63 228 0.0 0.0 0.00 0.00 0.00 71 1011.9
20260506024339 63 228 0.0 0.0 0.00 0.00 0.00 70 1011.9
20260506023844 63 228 0.0 0.0 0.00 0.00 0.00 70 1011.8
20260506023352 63 263 0.0 0.0 0.00 0.00 0.00 70 1011.8
20260506022834 63 243 0.0 0.0 0.00 0.00 0.00 70 1011.8
20260506022326 64 241 0.0 0.0 0.00 0.00 0.00 70 1011.8
20260506021834 64 304 0.0 0.0 0.00 0.00 0.00 70 1011.8
20260506021325 64 307 0.0 0.0 0.00 0.00 0.00 70 1011.9
20260506020857 64 354 0.0 0.0 0.00 0.00 0.00 70 1011.9
20260506020333 64 217 0.0 0.0 0.00 0.00 0.00 69 1011.9
20260506015825 64 216 0.0 0.0 0.00 0.00 0.00 69 1011.9
20260506015350 64 247 0.0 0.0 0.00 0.00 0.00 68 1011.9
20260506014842 65 247 0.0 0.0 0.00 0.00 0.00 68 1011.9
20260506014341 65 233 0.0 0.0 0.00 0.00 0.00 67 1011.9
20260506013832 65 242 0.0 0.0 0.00 0.00 0.00 68 1011.9
20260506013352 65 197 0.0 0.0 0.00 0.00 0.00 68 1011.9
20260506012846 65 218 0.0 0.0 0.00 0.00 0.00 68 1011.9
20260506012330 65 252 0.0 0.0 0.00 0.00 0.00 68 1011.9
20260506011836 65 262 0.0 0.0 0.00 0.00 0.00 68 1011.9
20260506011334 65 241 0.0 0.0 0.00 0.00 0.00 68 1011.9
20260506010833 65 198 0.0 0.0 0.00 0.00 0.00 68 1012.0
20260506010348 66 243 0.0 0.0 0.00 0.00 0.00 67 1012.1
20260506005842 66 192 0.0 0.0 0.00 0.00 0.00 67 1012.1
20260506005331 66 174 0.0 5.2 0.00 0.00 0.00 67 1012.1
20260506004901 66 228 0.9 5.2 0.00 0.00 0.00 66 1012.0
20260506004345 67 247 0.0 1.7 0.00 0.00 0.00 66 1012.0
20260506003841 67 235 0.0 1.7 0.00 0.00 0.00 66 1012.0
20260506003349 66 272 0.0 4.3 0.00 0.00 0.00 66 1012.0
20260506002831 67 210 0.0 4.3 0.00 0.00 0.00 65 1011.9
20260506002338 67 201 0.0 0.9 0.00 0.00 0.00 66 1012.0
20260506001842 67 254 0.0 0.9 0.00 0.00 0.00 66 1011.9
20260506001327 67 266 0.0 0.9 0.00 0.00 0.00 66 1012.0
20260506000840 67 293 0.0 0.0 0.00 0.00 0.00 65 1012.0
20260506000348 67 233 0.0 0.9 0.00 0.00 0.00 64 1012.0
20260505235839 68 224 0.0 0.9 0.00 0.00 0.00 64 1012.1
20260505235330 66 251 0.0 0.9 0.00 0.00 0.00 65 1012.1
20260505234828 67 236 0.0 1.7 0.00 0.00 0.00 64 1012.2
20260505234325 68 223 0.0 7.0 0.00 0.00 0.00 64 1012.2
20260505233828 68 212 0.0 7.0 0.00 0.00 0.00 63 1012.2
20260505233330 68 223 0.0 0.0 0.00 0.00 0.00 65 1012.3
20260505232848 68 130 0.0 0.0 0.00 0.00 0.00 65 1012.3
20260505232330 68 152 0.0 0.0 0.00 0.00 0.00 66 1012.4
20260505231832 67 228 0.0 0.0 0.00 0.00 0.00 64 1012.5
20260505231342 67 222 0.0 0.0 0.00 0.00 0.00 65 1012.5
20260505230831 67 233 0.0 0.0 0.00 0.00 0.00 67 1012.6
20260505230324 68 238 0.0 0.9 0.00 0.00 0.00 63 1012.7
20260505225854 68 234 0.0 1.7 0.00 0.00 0.00 64 1012.7
20260505225334 68 220 0.0 1.7 0.00 0.00 0.00 66 1012.7
20260505224823 67 210 0.0 2.6 0.00 0.00 0.00 64 1012.8
20260505224339 67 233 0.0 0.9 0.00 0.00 0.00 67 1012.8
20260505223835 67 222 0.0 1.7 0.00 0.00 0.00 64 1012.8
20260505223333 68 147 0.0 1.7 0.00 0.00 0.00 66 1012.7
20260505222841 67 254 0.0 0.9 0.00 0.00 0.00 66 1012.8
20260505222324 66 196 0.0 0.9 0.00 0.00 0.00 66 1012.8
20260505221834 67 162 0.0 0.9 0.00 0.00 0.00 67 1012.9
20260505221330 67 122 0.0 0.0 0.00 0.00 0.00 67 1012.9
20260505220841 66 137 0.0 0.0 0.00 0.00 0.00 66 1013.0
20260505220338 67 183 0.0 0.0 0.00 0.00 0.00 66 1013.0
20260505215838 68 197 0.0 0.0 0.00 0.00 0.00 65 1013.0
20260505215325 67 168 0.0 0.0 0.00 0.00 0.00 66 1013.0
20260505214827 67 208 0.0 0.0 0.00 0.00 0.00 66 1013.0
20260505214324 66 264 0.0 0.9 0.00 0.00 0.00 67 1013.1
20260505213849 66 204 0.0 2.6 0.00 0.00 0.00 67 1013.0
20260505213335 67 167 0.0 2.6 0.00 0.00 0.00 66 1013.1
20260505212830 66 180 0.0 0.9 0.00 0.00 0.00 67 1013.1
20260505212347 65 272 0.0 7.0 0.00 0.00 0.00 67 1013.1
20260505211826 66 203 0.0 7.0 0.00 0.00 0.00 66 1013.1
20260505211325 66 247 0.0 0.9 0.00 0.00 0.00 67 1013.1
20260505210848 67 240 0.0 4.3 0.00 0.00 0.00 65 1013.2
20260505210342 67 191 0.0 0.9 0.00 0.00 0.00 67 1013.2
20260505205851 66 202 0.0 0.0 0.00 0.00 0.00 66 1013.2
20260505205326 67 235 0.0 0.0 0.00 0.00 0.00 66 1013.3
20260505204841 66 125 0.0 0.0 0.00 0.00 0.00 67 1013.4
20260505204325 66 174 0.0 0.9 0.00 0.00 0.00 68 1013.4
20260505203826 66 227 0.0 0.9 0.00 0.00 0.00 66 1013.4
20260505203335 66 192 0.0 1.7 0.00 0.00 0.00 68 1013.4
20260505202829 66 231 0.0 1.7 0.00 0.00 0.00 68 1013.4
20260505202346 66 209 0.0 0.9 0.00 0.00 0.00 69 1013.5
20260505201830 66 217 0.0 0.9 0.00 0.00 0.00 68 1013.4
20260505201349 66 198 0.0 0.0 0.00 0.00 0.00 70 1013.4
20260505200823 65 234 0.0 6.1 0.00 0.00 0.00 71 1013.4
20260505200342 65 237 0.0 6.1 0.00 0.00 0.00 69 1013.4
20260505195842 65 145 0.0 0.0 0.00 0.00 0.00 70 1013.5
20260505195326 64 241 0.0 0.0 0.00 0.00 0.00 70 1013.5
20260505194830 65 219 0.0 0.9 0.00 0.00 0.00 67 1013.6
20260505194325 65 197 0.0 1.7 0.00 0.00 0.00 70 1013.6
20260505193839 65 255 0.0 5.2 0.00 0.00 0.00 70 1013.6
20260505193410 64 204 0.0 5.2 0.00 0.00 0.00 70 1013.6
20260505192822 64 247 0.0 0.9 0.00 0.00 0.00 70 1013.7
20260505192338 64 236 0.0 0.9 0.00 0.00 0.00 72 1013.6
20260505191844 64 226 0.0 0.9 0.00 0.00 0.00 71 1013.6
20260505191337 64 229 0.0 0.9 0.00 0.00 0.00 72 1013.7
20260505190902 63 115 0.0 0.9 0.00 0.00 0.00 73 1013.7
20260505190339 63 201 0.0 0.9 0.00 0.00 0.00 74 1013.6
20260505185845 63 174 0.0 0.0 0.00 0.00 0.00 76 1013.7
20260505185358 62 239 0.0 0.9 0.00 0.00 0.00 76 1013.7
20260505184903 62 133 0.0 4.3 0.00 0.00 0.00 77 1013.7
20260505184330 62 221 0.0 4.3 0.00 0.00 0.00 76 1013.7
20260505183851 62 197 0.0 0.0 0.00 0.00 0.00 76 1013.8
20260505183337 63 220 0.0 6.1 0.00 0.00 0.00 76 1013.7
20260505182844 62 244 0.9 6.1 0.00 0.00 0.00 75 1013.7
20260505182330 63 290 0.0 3.5 0.00 0.00 0.00 75 1013.7
20260505181842 63 199 0.0 0.9 0.00 0.00 0.00 75 1013.6
20260505181352 63 289 0.0 0.0 0.00 0.00 0.00 76 1013.5
20260505180825 62 151 0.0 0.0 0.00 0.00 0.00 75 1013.4
20260505180332 63 227 0.0 1.7 0.00 0.00 0.00 75 1013.4
20260505175832 63 211 0.0 1.7 0.00 0.00 0.00 75 1013.5
20260505175331 62 121 0.0 0.0 0.00 0.00 0.00 75 1013.5
20260505174841 63 249 0.0 0.0 0.00 0.00 0.00 76 1013.5
20260505174323 62 233 0.0 0.0 0.00 0.00 0.00 75 1013.5
20260505173828 62 246 0.0 0.0 0.00 0.00 0.00 75 1013.5
20260505173336 62 149 0.0 0.9 0.00 0.00 0.00 76 1013.5
20260505172840 62 249 0.0 0.9 0.00 0.00 0.00 75 1013.6
20260505172324 62 129 0.0 0.9 0.00 0.00 0.00 75 1013.5
20260505171846 62 201 0.0 0.0 0.00 0.00 0.00 75 1013.5
20260505171330 62 214 0.0 0.0 0.00 0.00 0.00 76 1013.5
20260505170856 62 227 0.0 0.0 0.00 0.00 0.00 76 1013.4
20260505170326 62 171 0.0 0.0 0.00 0.00 0.00 76 1013.6
20260505165828 61 140 0.0 0.0 0.00 0.00 0.00 77 1013.5
20260505165329 61 157 0.0 3.5 0.00 0.00 0.00 76 1013.6
20260505164826 62 239 0.0 3.5 0.00 0.00 0.00 77 1013.6
20260505164330 61 187 0.0 0.0 0.00 0.00 0.00 77 1013.5
20260505163841 61 204 0.0 0.0 0.00 0.00 0.00 76 1013.6
20260505163324 61 77 0.0 0.0 0.00 0.00 0.00 76 1013.5
20260505162828 61 145 0.0 0.0 0.00 0.00 0.00 77 1013.5
20260505162348 61 137 0.0 0.0 0.00 0.00 0.00 77 1013.4
20260505161834 61 156 0.0 0.0 0.00 0.00 0.00 77 1013.4
20260505161342 61 77 0.0 0.0 0.00 0.00 0.00 77 1013.4
20260505160842 61 102 0.0 0.9 0.00 0.00 0.00 77 1013.4
20260505160328 61 81 0.0 0.9 0.00 0.00 0.00 76 1013.4
20260505153345 60 77 0.0 0.0 0.00 0.00 0.00 77 1013.3
20260505152825 60 77 0.0 0.0 0.00 0.00 0.00 77 1013.3
20260505152341 60 73 0.0 0.0 0.00 0.00 0.00 78 1013.3
20260505151826 60 73 0.0 0.0 0.00 0.00 0.00 78 1013.2
20260505151332 60 73 0.0 0.0 0.00 0.00 0.00 77 1013.2
20260505150855 60 139 0.0 0.0 0.00 0.00 0.00 78 1013.2
20260505150340 59 213 0.0 0.0 0.00 0.00 0.00 78 1013.2
20260505140353 57 168 0.0 0.0 0.00 0.00 0.00 82 1012.5
20260505124843 55 145 0.0 0.0 0.00 0.00 0.00 81 1011.5
20260505124331 55 145 0.0 0.0 0.00 0.00 0.00 81 1011.4
20260505123827 55 145 0.0 0.0 0.00 0.00 0.00 80 1011.4
20260505123340 55 145 0.0 0.0 0.00 0.00 0.00 80 1011.3
20260505122829 56 145 0.0 0.0 0.00 0.00 0.00 79 1011.3
20260505122335 56 145 0.0 0.0 0.00 0.00 0.00 79 1011.3
20260505121851 56 145 0.0 0.0 0.00 0.00 0.00 78 1011.4
20260505121327 56 145 0.0 0.9 0.00 0.00 0.00 78 1011.3
20260505120831 56 156 0.0 0.9 0.00 0.00 0.00 78 1011.2
20260505120325 56 143 0.0 0.0 0.00 0.00 0.00 78 1011.1
20260505115827 56 143 0.0 0.0 0.00 0.00 0.00 78 1011.1
20260505115332 56 143 0.0 0.0 0.00 0.00 0.00 77 1011.0
20260505114856 57 143 0.0 0.0 0.00 0.00 0.00 77 1011.0
20260505114339 57 143 0.0 0.0 0.00 0.00 0.00 77 1010.9
20260505113828 57 143 0.0 0.0 0.00 0.00 0.00 76 1010.8
20260505113352 57 143 0.0 0.0 0.00 0.00 0.00 76 1010.8
20260505112834 57 143 0.0 0.0 0.00 0.00 0.00 76 1010.7
20260505112324 57 143 0.0 0.0 0.00 0.00 0.00 76 1010.6
20260505111833 57 143 0.0 0.0 0.00 0.00 0.00 76 1010.5
20260505111326 57 143 0.0 0.0 0.00 0.00 0.00 76 1010.5
20260505110840 57 143 0.0 0.0 0.00 0.00 0.00 76 1010.5
20260505110332 57 143 0.0 0.0 0.00 0.00 0.00 76 1010.5
20260505101851 58 143 0.0 0.0 0.00 0.00 0.00 77 1010.1
20260505101335 58 143 0.0 0.0 0.00 0.00 0.00 78 1010.0
20260505100823 58 143 0.0 0.0 0.00 0.00 0.00 79 1009.9
20260505100336 57 143 0.0 0.0 0.00 0.00 0.00 80 1009.8
20260505095827 57 143 0.0 0.0 0.00 0.00 0.00 81 1009.7
20260505095343 57 143 0.0 0.0 0.00 0.00 0.00 82 1009.7
20260505094828 57 143 0.0 0.0 0.00 0.00 0.00 83 1009.7
20260505094329 57 143 0.0 0.0 0.00 0.00 0.00 83 1009.7
20260505093841 57 143 0.0 0.0 0.00 0.00 0.00 83 1009.6
20260505093338 57 143 0.0 0.0 0.00 0.00 0.00 83 1009.5
20260505092840 58 143 0.0 0.0 0.00 0.00 0.00 83 1009.4
20260505092348 58 143 0.0 0.0 0.00 0.00 0.00 83 1009.4
20260505091824 58 143 0.0 0.0 0.00 0.00 0.00 82 1009.3
20260505091331 58 143 0.0 0.0 0.00 0.00 0.00 82 1009.2
20260505090823 58 143 0.0 0.0 0.00 0.00 0.00 82 1009.2
20260505090326 58 143 0.0 0.0 0.00 0.00 0.00 82 1009.2
20260505085827 58 143 0.0 0.0 0.00 0.00 0.00 81 1009.1
20260505085330 58 143 0.0 0.0 0.00 0.00 0.00 81 1009.0
20260505084831 59 143 0.0 0.0 0.00 0.00 0.00 81 1008.9
20260505084326 59 143 0.0 0.0 0.00 0.00 0.00 80 1008.9
20260505083837 59 143 0.0 0.0 0.00 0.00 0.00 80 1008.8
20260505083326 59 143 0.0 0.0 0.00 0.00 0.00 80 1008.8
20260505082834 59 143 0.0 0.0 0.00 0.00 0.00 80 1008.8
20260505082335 59 143 0.0 0.0 0.00 0.00 0.00 79 1008.7
20260505081839 59 143 0.0 0.0 0.00 0.00 0.00 79 1008.6
20260505081337 59 143 0.0 0.0 0.00 0.00 0.00 78 1008.6
20260505080825 60 143 0.0 0.0 0.00 0.00 0.00 78 1008.6
20260505080335 60 143 0.0 0.0 0.00 0.00 0.00 78 1008.5
20260505075827 60 143 0.0 0.0 0.00 0.00 0.00 78 1008.5
20260505075336 60 143 0.0 0.0 0.00 0.00 0.00 77 1008.5
20260505074828 60 143 0.0 0.0 0.00 0.00 0.00 77 1008.4
20260505074325 60 143 0.0 0.0 0.00 0.00 0.00 77 1008.4
20260505073825 60 143 0.0 0.0 0.00 0.00 0.00 77 1008.3
20260505073329 61 143 0.0 0.0 0.00 0.00 0.00 76 1008.2
20260505072840 61 143 0.0 0.0 0.00 0.00 0.00 76 1008.1
20260505072323 61 143 0.0 0.0 0.00 0.00 0.00 75 1008.1
20260505071828 61 143 0.0 0.0 0.00 0.00 0.00 75 1008.0
20260505071328 61 143 0.0 0.0 0.00 0.00 0.00 75 1007.9
20260505070837 61 143 0.0 0.0 0.00 0.00 0.00 74 1007.8
20260505070337 62 143 0.0 0.0 0.00 0.00 0.00 74 1007.7
20260505065837 62 143 0.0 0.0 0.00 0.00 0.00 73 1007.6
20260505065327 62 143 0.0 0.0 0.00 0.00 0.00 73 1007.7
20260505064353 62 143 0.0 0.0 0.00 0.00 0.00 72 1007.6
20260505063845 62 143 0.0 0.0 0.00 0.00 0.00 72 1007.6
20260505063341 63 143 0.0 0.0 0.00 0.00 0.00 71 1007.5
20260505062830 63 143 0.0 0.0 0.00 0.00 0.00 71 1007.5
20260505062332 63 143 0.0 0.0 0.00 0.00 0.00 70 1007.5
20260505061840 63 143 0.0 0.0 0.00 0.00 0.00 70 1007.5
20260505061331 63 143 0.0 0.0 0.00 0.00 0.00 70 1007.4
20260505060830 63 143 0.0 0.0 0.00 0.00 0.00 69 1007.4
20260505060333 64 143 0.0 0.0 0.00 0.00 0.00 69 1007.3
20260505055836 64 143 0.0 0.0 0.00 0.00 0.00 69 1007.3